Regional Weather Roundup
Issued by NWS Little Rock, AR

Home | Current Version | Previous Version | Text Only | Print | Product List | Glossary Off
Versions: 1 2 3 4 5 6 7 8 9 10 11 12 13 14 15 16 17 18 19 20 21 22 23 24 25 26 27 28 29 30 31 32 33 34 35 36 37 38 39 40 41 42 43 44 45 46 47 48 49

000
ASUS44 KLZK 290505
RWRLZK

WEATHER ROUNDUP FOR ARKANSAS
NATIONAL WEATHER SERVICE LITTLE ROCK AR
1200 AM CDT TUE JUL 29 2014

NOTE: "FAIR" INDICATES FEW OR NO CLOUDS BELOW 12,000 FEET WITH NO
SIGNIFICANT WEATHER AND/OR OBSTRUCTIONS TO VISIBILITY.

ARZ001-003-010-029-290600-
NORTHWEST ARKANSAS

CITY           SKY/WX    TMP DP  RH WIND       PRES   REMARKS
FAYETTEVILLE   CLEAR     62  60  93 S3        30.17R
FORT SMITH     CLEAR     75  61  61 CALM      30.11R
HARRISON       CLEAR     66  58  75 NW3       30.16R
BENTONVILLE    PTCLDY    70  55  60 NE6       30.17S
ROGERS         PTCLDY    66  57  72 NE7       30.18R
SILOAM SPGS    CLEAR     68  54  60 CALM      30.17S
HIGHFILL       PTCLDY    66  58  75 N5        30.16S
$$

ARZ004-005-016-290600-
NORTH CENTRAL ARKANSAS

CITY           SKY/WX    TMP DP  RH WIND       PRES   REMARKS
BATESVILLE     CLEAR     70  63  78 CALM      30.09R
FLIPPIN        CLEAR     72  57  60 N3        30.13R
MTN HOME       CLEAR     70  58  65 VRB5      30.12S
$$

ARZ040-041-290600-
WEST CENTRAL ARKANSAS

CITY           SKY/WX    TMP DP  RH WIND       PRES   REMARKS
MENA           CLEAR     66  63  88 CALM      30.13S
MOUNT IDA      CLEAR     67  64  90 CALM      30.09R
$$

ARZ009-017-025-026-028-290600-
NORTHEAST ARKANSAS

CITY           SKY/WX    TMP DP  RH WIND       PRES   REMARKS
CORNING        CLOUDY    72  63  73 NE12G17   30.11R
JONESBORO      MOCLDY    73  64  73 NE7       30.08R
NEWPORT        PTCLDY    73  67  81 N8        30.09R
WALNUT RIDGE   MOCLDY    73  63  68 NE8       30.09R
BLYTHEVILLE    MOCLDY    72  64  76 NE8       30.08R
$$

ARZ022-023-033-042-044-290600-
CENTRAL ARKANSAS

CITY           SKY/WX    TMP DP  RH WIND       PRES   REMARKS
LITTLE ROCK    PTCLDY    73  65  75 CALM      30.07S
N LITTLE ROCK  PTCLDY    74  65  73 W5        30.07S
JACKSONVILLE   CLEAR     71  66  84 CALM      30.07S
SEARCY         CLEAR     69  66  90 NW5       30.08S FOG
HOT SPRINGS    CLEAR     71  67  87 CALM      30.09S
RUSSELLVILLE   CLEAR     71  65  81 W3        30.09S
CLINTON        FAIR      66  66 100 CALM      30.11S
$$

ARZ036-290600-
EAST ARKANSAS

CITY           SKY/WX    TMP DP  RH WIND       PRES   REMARKS
WEST MEMPHIS   PTCLDY    72  69  90 CALM      30.05R
$$

ARZ050-053-066-070-073-290600-
SOUTHWEST ARKANSAS

CITY           SKY/WX    TMP DP  RH WIND       PRES   REMARKS
ARKADELPHIA    FAIR      71  70  97 CALM      30.08S
CAMDEN         CLEAR     68  64  88 CALM      30.06F
TEXARKANA      PTCLDY    72  67  84 CALM      30.07F
EL DORADO      PTCLDY    70  68  93 CALM      30.07S
DE QUEEN       CLEAR     69  66  90 CALM      30.08S
$$

ARZ056-057-069-290600-
SOUTHEAST ARKANSAS

CITY           SKY/WX    TMP DP  RH WIND       PRES   REMARKS
PINE BLUFF     CLEAR     70  67  90 CALM      30.06S
STUTTGART      CLEAR     72  66  83 W3        30.06F
MONTICELLO     CLEAR     70  66  87 CALM      30.06F

$$




USA.gov is the U.S. government's official web portal to all federal, state and local government web resources and services.